Theta_e
305 304 304 304 304 305 307 316 324 322 320 321 320 320 321 318 320 321 323 327 326 324 324 325 326 323 322 323 324 324 326 326 329 344 342 343 346 347 349 351 357 354 363 358
304 305 304 304 304 304 306 315 321 319 320 320 321 322 322 322 324 321 321 323 324 324 324 324 327 327 328 324 323 324 324 327 327 342 341 340 341 343 348 352 354 359 363 356
304 303 303 303 304 304 307 316 324 322 322 322 321 322 325 324 324 322 322 320 320 321 323 324 325 326 327 327 324 330 326 323 327 335 343 342 343 347 349 350 359 358 357 350
304 303 303 303 303 306 310 320 321 317 321 319 317 316 319 321 323 324 323 326 323 321 321 323 324 326 325 327 332 327 324 322 324 327 337 341 344 347 349 350 351 353 349 348
304 304 303 303 303 309 314 317 316 315 315 315 315 314 317 317 317 318 319 320 323 324 321 327 328 326 324 326 326 325 323 323 329 330 330 339 347 344 345 347 347 350 348 348
305 305 306 303 303 307 311 313 312 314 314 314 314 315 315 315 316 317 318 317 319 322 325 326 326 327 327 322 321 323 324 323 325 327 335 342 342 341 341 346 347 346 347 343
306 307 306 306 305 304 307 310 311 314 315 314 314 313 313 313 314 314 314 315 317 319 317 321 325 328 327 323 321 322 323 326 327 328 333 347 341 338 338 346 347 346 343 341
306 306 307 306 305 305 306 308 311 313 313 313 313 314 313 314 313 313 314 314 314 314 317 321 330 330 329 326 324 323 323 325 326 328 330 335 341 338 339 342 348 345 344 342
306 307 307 307 306 304 305 308 309 310 312 312 312 313 313 313 312 313 313 314 314 316 319 322 331 337 336 331 326 322 323 325 331 330 328 332 333 339 338 341 347 345 344 343
305 307 307 307 306 305 306 307 308 310 312 312 312 313 313 313 312 313 312 313 315 315 321 324 325 329 333 336 328 325 328 331 333 334 329 328 331 337 340 344 344 342 341 342
304 304 305 306 306 306 306 306 306 308 309 309 309 310 312 312 312 312 312 312 317 319 321 326 329 330 333 334 331 330 330 334 334 335 336 336 330 337 338 339 340 340 340 339
304 305 304 304 305 306 306 306 306 307 311 310 309 309 310 310 311 311 311 311 312 317 321 322 321 333 333 333 332 329 334 330 332 334 335 336 337 336 336 335 336 339 341 340
304 305 304 305 305 305 306 307 306 306 308 309 309 309 309 309 310 310 310 310 310 315 314 316 318 327 332 338 333 330 330 330 332 330 329 329 331 331 335 337 339 340 340 339
303 304 304 305 305 305 305 306 307 307 309 310 308 308 308 308 308 309 310 310 309 314 315 316 315 317 320 327 331 336 331 331 331 329 329 331 330 333 334 336 338 340 341 341
304 304 305 306 306 306 306 306 306 307 308 310 310 308 308 308 308 309 309 310 310 316 314 313 315 314 321 326 331 337 334 334 332 331 328 330 332 335 336 335 335 342 344 346
305 304 305 306 306 307 307 308 310 309 307 309 309 308 309 308 308 309 311 309 311 315 314 313 314 312 317 320 335 335 335 342 344 342 331 330 334 333 332 332 335 335 338 343
304 304 306 307 307 306 308 309 308 308 308 308 309 309 310 311 313 313 311 311 315 315 315 314 314 314 316 317 321 330 334 336 340 346 345 331 335 331 330 332 334 332 338 339
306 305 305 307 307 306 307 307 308 308 308 306 309 309 312 313 316 317 314 315 315 315 316 316 316 317 317 320 322 331 334 341 345 345 344 344 344 342 344 343 342 333 338 348
304 306 307 307 307 308 308 308 308 308 308 310 309 312 314 312 317 316 316 316 316 315 315 317 318 319 318 320 329 336 334 339 341 344 344 346 347 345 344 344 345 346 346 348
307 308 309 310 311 311 310 310 310 309 309 307 310 312 314 311 318 317 317 317 319 321 319 321 321 322 320 321 323 333 339 337 341 347 348 345 347 348 347 347 344 344 345 346
311 312 312 309 310 311 314 314 313 311 311 309 309 311 313 314 318 320 321 322 324 327 326 325 329 330 325 321 323 330 336 335 337 340 341 342 344 345 347 346 347 349 346 344
306 306 307 307 310 312 313 315 316 316 318 315 317 316 314 316 318 322 322 323 327 330 325 329 330 328 328 328 328 330 334 336 338 342 343 343 346 344 349 348 346 346 351 346
308 306 306 309 310 314 315 316 318 322 323 320 319 320 318 317 317 321 321 327 331 330 333 334 331 335 340 334 334 333 334 343 347 352 353 352 356 356 354 355 350 349 353 351
309 310 310 313 316 315 316 316 317 324 324 323 321 322 320 319 319 320 322 326 330 332 333 335 341 343 346 345 341 335 347 348 349 352 353 358 361 361 361 361 355 357 350 352
309 308 309 314 313 314 317 321 320 320 321 323 323 323 320 321 321 321 322 327 333 333 332 336 339 339 341 343 345 346 347 348 350 352 354 359 359 361 363 362 362 367 366 369
308 308 309 311 315 317 316 318 319 319 318 322 324 325 325 324 323 322 325 331 333 335 334 335 334 336 338 341 345 346 347 347 351 351 354 357 358 359 359 357 360 362 367 370
308 309 308 308 310 312 312 314 315 314 318 324 324 325 327 327 329 329 329 332 332 332 333 332 331 334 335 335 339 344 343 346 347 346 350 353 353 354 356 357 356 357 360 367
Wind_Speed
26 28 30 34 38 46 26 10 3 11 6 1 3 4 5 7 16 14 6 1 8 10 15 12 11 10 11 12 13 12 18 4 6 3 7 3 6 6 11 6 6 6 6 7
24 27 29 31 32 33 16 6 4 7 5 3 4 8 11 13 12 9 6 8 9 12 12 8 9 13 13 14 10 12 8 10 11 6 8 3 6 5 11 9 5 3 2 5
23 25 28 30 31 30 15 4 3 1 2 4 8 8 8 11 13 12 10 4 9 12 14 11 9 15 13 20 7 4 5 7 9 10 8 5 11 12 21 17 8 4 9 10
23 25 26 29 32 32 3 3 3 5 4 7 13 11 9 13 12 11 14 9 8 8 10 13 14 13 17 20 7 4 2 4 6 8 10 10 9 8 13 5 15 9 17 6
21 22 25 27 31 26 1 4 4 6 9 10 9 9 7 12 13 10 12 12 18 16 7 13 18 21 17 9 13 9 3 6 3 5 7 10 7 4 3 14 9 6 8 4
18 19 21 23 27 21 7 13 11 5 7 8 7 7 10 15 16 11 15 18 16 17 19 22 21 21 20 19 12 16 7 4 2 5 1 7 4 5 8 5 9 11 5 8
15 15 16 17 19 18 10 13 12 4 5 7 9 16 15 15 14 11 16 14 12 14 24 23 20 16 16 17 15 13 11 3 4 4 2 7 3 11 17 14 9 6 7 16
14 12 13 14 15 16 11 11 9 3 6 9 12 14 12 13 12 13 13 15 11 16 16 7 8 6 11 16 14 16 10 4 3 5 9 2 5 8 9 10 12 17 17 28
12 12 11 12 14 14 12 14 14 4 4 4 12 12 11 9 8 9 10 16 16 10 5 3 5 4 5 5 5 9 10 5 4 2 7 11 5 5 5 4 8 21 18 25
12 12 12 11 12 12 12 10 12 9 3 10 9 8 9 10 8 6 9 8 8 7 1 5 9 11 11 10 9 9 5 4 4 5 7 7 6 10 8 7 5 18 23 17
12 12 12 12 12 11 10 14 15 11 5 12 17 17 14 12 8 7 6 6 1 4 3 3 4 7 8 9 13 9 9 4 3 3 6 6 12 5 15 8 6 8 16 14
12 12 11 11 11 12 10 10 15 13 4 9 26 25 26 24 18 10 6 6 7 3 2 5 5 6 6 9 13 8 6 13 5 5 5 7 2 8 9 15 12 22 21 22
13 13 13 14 12 12 11 15 17 18 5 9 15 12 26 27 28 27 9 7 9 5 3 2 3 6 6 7 8 12 14 8 10 5 13 14 15 7 6 5 10 36 23 15
14 14 14 15 13 14 13 15 15 15 4 4 6 13 15 18 20 22 31 21 17 6 2 2 3 5 7 7 13 12 9 7 13 7 12 10 16 8 6 6 3 21 8 13
15 16 16 16 14 15 16 19 22 21 9 3 7 21 35 36 34 28 23 15 11 4 4 3 4 3 5 7 12 13 10 5 7 13 12 9 11 7 8 5 7 19 13 4
16 17 17 16 15 14 9 3 3 15 26 2 3 6 13 26 23 21 23 19 10 4 4 3 3 4 1 5 7 6 7 6 8 3 13 17 9 6 6 4 6 3 14 16
18 18 17 15 14 13 7 2 2 6 7 1 4 5 4 8 9 2 5 13 3 3 4 4 3 3 2 4 11 14 19 16 11 12 13 6 4 8 8 5 9 9 4 11
17 18 19 14 13 14 15 30 27 17 1 1 3 5 4 4 1 4 3 5 4 4 3 3 4 5 3 6 11 19 17 11 10 12 13 9 9 9 9 8 8 5 6 19
20 20 12 6 5 6 3 6 9 23 7 3 4 3 4 1 4 3 2 4 3 3 6 5 6 4 7 19 16 14 8 7 8 10 10 11 10 9 9 8 9 9 10 17
12 4 3 2 7 3 8 4 3 3 4 3 4 3 6 1 3 6 5 4 3 5 8 7 4 7 22 19 23 15 7 7 8 5 8 10 9 8 8 8 5 2 1 7
2 2 1 4 4 5 3 3 4 4 4 4 5 8 6 4 4 5 4 2 4 4 5 8 6 5 9 16 20 15 10 8 9 5 6 8 9 7 6 7 7 7 4 4
9 11 10 3 2 4 4 4 4 6 5 6 3 4 4 3 2 2 2 3 3 4 11 5 3 6 15 18 16 15 9 8 10 6 8 10 9 9 8 6 6 7 10 9
3 1 2 3 4 5 5 6 4 3 2 5 4 4 3 2 2 2 2 5 5 2 3 3 4 4 6 11 10 13 9 5 4 7 9 9 8 12 7 7 7 11 9 13
2 2 4 3 5 7 6 8 8 3 4 6 6 2 4 2 2 2 4 4 4 4 3 3 3 5 6 5 4 6 6 3 2 6 8 7 5 9 8 9 6 10 9 12
2 3 4 7 9 11 10 11 1 8 5 6 3 2 3 3 2 3 4 4 4 3 2 2 1 4 3 3 3 3 4 3 4 4 6 3 6 7 7 17 18 10 8 12
3 5 5 7 9 7 8 10 8 9 10 4 2 3 2 4 2 3 5 4 3 2 4 3 6 4 3 4 1 1 1 2 2 6 6 8 7 5 7 18 20 18 7 12
4 4 5 7 6 6 6 7 7 8 6 3 2 1 5 3 4 5 2 4 3 2 1 4 4 5 3 4 3 3 5 5 8 4 8 5 6 8 7 7 10 13 16 11
Wind_Direction
350 351 353 355 356 353 7 328 291 152 182 232 212 231 251 275 298 308 319 285 301 304 316 317 327 229 199 235 209 215 223 217 243 182 197 94 241 196 147 124 165 146 180 266
350 351 352 354 358 4 341 317 277 222 170 257 259 295 324 320 328 305 330 333 321 328 309 318 336 319 316 269 215 206 217 223 248 340 344 303 219 157 130 101 94 119 176 264
349 350 351 352 352 354 350 286 290 277 162 241 332 343 323 335 329 323 337 304 323 315 314 307 298 307 302 318 257 116 155 221 187 228 208 232 263 121 143 151 135 182 241 325
348 349 351 353 350 349 348 233 16 18 330 347 343 329 321 325 331 343 339 334 305 284 304 314 311 306 303 312 294 157 121 229 241 265 216 181 273 16 119 219 150 169 221 215
347 350 351 355 356 359 159 353 359 348 305 316 320 318 308 301 298 303 313 313 328 337 296 346 322 324 302 277 316 317 259 256 288 294 305 217 143 97 168 254 185 118 152 234
345 352 355 357 0 18 356 1 353 319 303 315 310 295 314 332 341 325 338 355 343 333 349 332 315 300 285 283 291 300 278 189 193 256 124 101 316 205 235 187 175 158 132 226
343 350 356 0 3 9 354 327 331 307 293 318 312 322 322 321 329 330 319 327 331 322 331 324 319 306 303 285 282 276 281 236 151 203 241 197 203 158 241 149 155 326 318 257
337 343 349 352 354 356 350 313 314 328 308 334 308 339 345 336 320 312 312 314 326 317 327 330 329 320 302 279 272 274 276 295 189 159 246 253 186 173 167 161 195 190 226 242
336 335 337 340 345 346 348 313 326 319 323 196 359 321 311 306 313 308 314 342 340 350 325 295 244 265 320 252 277 263 278 279 139 197 208 232 210 202 208 167 147 208 220 223
324 327 328 327 329 332 337 295 315 307 259 280 278 327 324 320 326 314 323 342 330 321 234 273 262 262 280 267 239 245 267 308 234 272 215 244 249 195 107 110 225 172 203 188
316 318 318 319 319 318 327 296 308 299 285 285 281 283 290 297 300 296 322 340 78 316 264 252 247 259 261 242 250 210 215 195 232 212 218 239 209 150 171 193 102 177 237 197
306 307 308 310 314 311 310 289 301 321 267 281 301 290 278 269 285 297 281 254 313 48 326 19 316 276 294 291 242 257 240 221 199 205 209 270 248 158 218 169 184 199 204 207
298 300 303 304 304 299 285 281 295 308 285 282 253 253 260 256 254 254 258 263 279 175 131 116 303 279 332 286 251 229 252 253 245 265 270 267 286 302 340 13 180 180 193 220
295 296 299 296 297 294 285 275 272 273 277 274 278 291 273 281 270 260 230 234 242 99 155 137 213 277 325 310 297 310 235 232 229 234 258 286 280 309 285 72 152 165 184 189
297 297 297 294 298 292 284 273 258 252 217 278 286 308 288 274 266 261 261 244 241 149 158 171 225 274 316 292 278 256 268 289 249 231 234 214 250 265 306 3 308 123 105 17
301 301 298 294 290 292 300 281 59 228 230 243 296 286 276 278 266 245 241 217 235 161 147 171 209 254 306 294 288 280 318 301 343 255 204 217 237 215 259 278 275 199 134 160
304 304 301 298 280 263 232 247 76 78 132 93 295 281 235 291 293 208 188 199 190 139 161 197 213 183 120 266 260 299 315 310 312 12 12 203 229 234 233 262 292 247 139 134
308 307 302 291 272 266 256 252 234 232 198 124 253 265 287 290 232 182 135 181 158 185 197 184 179 155 140 258 247 253 249 297 344 9 5 353 342 5 53 34 351 268 96 144
313 310 296 279 217 230 239 211 203 200 199 223 220 235 284 297 202 131 230 164 159 191 214 208 168 141 220 244 248 267 279 303 324 344 356 340 350 2 11 24 16 47 61 160
315 302 222 262 343 234 138 121 134 184 195 227 250 207 239 286 215 179 177 189 217 198 204 154 177 233 234 238 254 275 280 305 307 343 349 337 334 347 345 344 318 339 72 132
290 268 283 316 359 271 225 216 202 168 226 213 227 214 223 211 238 212 214 191 212 215 163 185 201 234 236 251 254 252 274 284 297 296 320 301 292 297 299 308 314 323 285 263
310 292 294 285 253 232 245 223 196 212 238 165 193 196 193 250 236 266 178 249 246 267 147 218 229 210 208 201 210 231 243 266 282 323 288 281 279 280 279 246 261 281 297 272
260 233 260 209 214 237 225 223 219 220 161 190 164 188 203 200 248 216 239 252 234 302 199 236 220 207 164 179 182 206 219 218 313 336 321 272 305 281 266 279 245 265 291 293
245 226 256 248 230 217 204 240 264 180 185 177 168 139 186 202 201 287 255 245 264 199 229 253 342 349 26 29 142 195 141 115 341 308 290 307 327 347 314 295 250 280 255 268
246 218 240 237 257 300 313 342 21 4 165 154 133 172 146 188 239 212 290 293 287 288 219 198 289 273 310 339 26 360 72 321 302 315 301 326 31 358 3 17 357 341 176 154
233 228 251 263 280 293 336 342 340 3 342 294 76 97 181 201 209 215 237 261 257 20 322 344 3 270 262 228 172 26 197 216 3 340 323 37 29 24 41 33 19 15 76 99
222 234 224 259 285 281 298 331 314 334 309 322 115 203 242 164 209 191 241 294 316 242 27 43 278 332 331 292 204 199 216 145 46 8 40 67 40 49 60 65 25 36 45 92